ASA67 KSEA-PAKT

Flight info

Callsign ASA67
Flight time 1h 45m
Altitude 38000
Route BANGR9 PANGL PR ANN
Aircraft B737/M-SDE2E3FGHIRWXY/LB1

Departure

Time 2026-05-06 17:12
Airport Seattle–Tacoma International Airport (KSEA)

Arrival

Time 2026-05-06 18:58
Airport Ketchikan International Airport (PAKT)
Time Latitude Longitude Altitude Speed Heading
2026-05-06 16:31 47.44814 -122.30314 408 ft 0 kts 41°
2026-05-06 17:02 47.44809 -122.30321 399 ft 4 kts 47°
2026-05-06 17:02 47.44790 -122.30349 408 ft 4 kts 40°
2026-05-06 17:02 47.44769 -122.30372 407 ft 4 kts 22°
2026-05-06 17:02 47.44754 -122.30378 404 ft 0 kts
2026-05-06 17:05 47.44755 -122.30379 406 ft 1 kts
2026-05-06 17:06 47.44770 -122.30396 407 ft 5 kts 316°
2026-05-06 17:06 47.44795 -122.30438 407 ft 4 kts 309°
2026-05-06 17:06 47.44804 -122.30468 407 ft 1 kts 280°
2026-05-06 17:08 47.44804 -122.30474 407 ft 4 kts 279°
2026-05-06 17:08 47.44807 -122.30569 406 ft 11 kts 276°
2026-05-06 17:08 47.44865 -122.30627 406 ft 11 kts 358°
2026-05-06 17:08 47.44941 -122.30628 408 ft 11 kts
2026-05-06 17:09 47.45018 -122.30627 411 ft 13 kts 360°
2026-05-06 17:09 47.45130 -122.30626 410 ft 20 kts
2026-05-06 17:09 47.45278 -122.30625 417 ft 22 kts
2026-05-06 17:09 47.45431 -122.30624 422 ft 22 kts
2026-05-06 17:10 47.45580 -122.30622 425 ft 21 kts
2026-05-06 17:10 47.45725 -122.30621 430 ft 21 kts
2026-05-06 17:10 47.45866 -122.30620 433 ft 20 kts
2026-05-06 17:10 47.46004 -122.30618 433 ft 19 kts
2026-05-06 17:11 47.46137 -122.30618 437 ft 19 kts
2026-05-06 17:11 47.46266 -122.30615 436 ft 18 kts
2026-05-06 17:11 47.46375 -122.30665 440 ft 18 kts 294°
2026-05-06 17:11 47.46349 -122.30769 437 ft 9 kts 214°
2026-05-06 17:12 47.46266 -122.30777 433 ft 21 kts 181°
2026-05-06 17:12 47.45842 -122.30782 430 ft 102 kts 180°
2026-05-06 17:12 47.44904 -122.30794 414 ft 166 kts 181°
2026-05-06 17:12 47.43681 -122.30791 1129 ft 172 kts 180°
2026-05-06 17:13 47.42536 -122.30802 2425 ft 161 kts 182°
2026-05-06 17:13 47.41335 -122.30831 3116 ft 188 kts 183°
2026-05-06 17:13 47.39909 -122.30874 3517 ft 219 kts 182°
2026-05-06 17:13 47.38311 -122.30915 4121 ft 244 kts 183°
2026-05-06 17:14 47.36559 -122.30983 4988 ft 258 kts 182°
2026-05-06 17:14 47.34733 -122.31090 5964 ft 268 kts 189°
2026-05-06 17:14 47.33011 -122.32126 6909 ft 272 kts 220°
2026-05-06 17:14 47.31844 -122.34266 7993 ft 269 kts 247°
2026-05-06 17:15 47.31346 -122.36913 9091 ft 269 kts 262°
2026-05-06 17:15 47.31051 -122.39669 10125 ft 275 kts 263°
2026-05-06 17:15 47.30821 -122.42506 10686 ft 295 kts 271°
2026-05-06 17:15 47.31270 -122.45598 10915 ft 325 kts 293°
2026-05-06 17:16 47.32334 -122.48636 11520 ft 339 kts 298°
2026-05-06 17:16 47.33559 -122.51636 12390 ft 345 kts 306°
2026-05-06 17:16 47.35286 -122.54122 13371 ft 349 kts 316°
2026-05-06 17:16 47.37141 -122.56467 14272 ft 354 kts 317°
2026-05-06 17:17 47.39028 -122.58829 15154 ft 357 kts 316°
2026-05-06 17:17 47.40926 -122.61218 16071 ft 360 kts 316°
2026-05-06 17:17 47.42837 -122.63642 16977 ft 364 kts 316°
2026-05-06 17:17 47.44763 -122.66103 17852 ft 368 kts 315°
2026-05-06 17:18 47.46711 -122.68603 18670 ft 373 kts 315°
2026-05-06 17:18 47.48676 -122.71134 19435 ft 376 kts 315°
2026-05-06 17:18 47.50654 -122.73686 20232 ft 378 kts 315°
2026-05-06 17:18 47.52644 -122.76256 21011 ft 381 kts 315°
2026-05-06 17:19 47.54656 -122.78857 21736 ft 385 kts 315°
2026-05-06 17:19 47.56685 -122.81481 22455 ft 388 kts 315°
2026-05-06 17:19 47.58700 -122.84096 23171 ft 391 kts 315°
2026-05-06 17:19 47.60758 -122.86769 23849 ft 395 kts 315°
2026-05-06 17:20 47.62836 -122.89468 24433 ft 398 kts 315°
2026-05-06 17:20 47.64916 -122.92195 25027 ft 400 kts 314°
2026-05-06 17:20 47.66934 -122.95048 25609 ft 402 kts 312°
2026-05-06 17:20 47.68920 -122.97986 26166 ft 404 kts 311°
2026-05-06 17:21 47.70902 -123.00959 26692 ft 407 kts 311°
2026-05-06 17:21 47.72903 -123.03958 27144 ft 409 kts 311°
2026-05-06 17:21 47.74917 -123.06967 27647 ft 412 kts 311°
2026-05-06 17:21 47.76950 -123.10001 28141 ft 416 kts 311°
2026-05-06 17:22 47.79006 -123.13052 28582 ft 419 kts 311°
2026-05-06 17:22 47.81073 -123.16124 29137 ft 420 kts 312°
2026-05-06 17:22 47.83133 -123.19187 29939 ft 416 kts 311°
2026-05-06 17:22 47.85139 -123.22170 30673 ft 411 kts 311°
2026-05-06 17:23 47.87148 -123.25158 31387 ft 406 kts 311°
2026-05-06 17:23 47.89140 -123.28125 31975 ft 404 kts 311°
2026-05-06 17:23 47.90496 -123.30149 32337 ft 403 kts 311°
2026-05-06 17:23 47.92471 -123.33101 32903 ft 400 kts 312°
2026-05-06 17:24 47.94429 -123.36030 33554 ft 396 kts 311°
2026-05-06 17:24 47.96370 -123.38936 34091 ft 395 kts 311°
2026-05-06 17:24 47.98304 -123.41834 34501 ft 394 kts 311°
2026-05-06 17:24 48.00100 -123.44530 34858 ft 393 kts 311°
2026-05-06 17:25 48.02027 -123.47427 35230 ft 393 kts 311°
2026-05-06 17:25 48.03951 -123.50321 35652 ft 392 kts 312°
2026-05-06 17:25 48.05865 -123.53202 36065 ft 390 kts 312°
2026-05-06 17:25 48.07772 -123.56075 36472 ft 389 kts 312°
2026-05-06 17:26 48.09677 -123.58948 36836 ft 388 kts 312°
2026-05-06 17:26 48.11574 -123.61813 37199 ft 387 kts 312°
2026-05-06 17:26 48.12830 -123.63711 37480 ft 386 kts 312°
2026-05-06 17:26 48.15407 -123.67441 37979 ft 386 kts 320°
2026-05-06 17:27 48.17656 -123.69686 38217 ft 391 kts 324°
2026-05-06 17:27 48.22320 -123.74020 38173 ft 395 kts 324°
2026-05-06 17:28 48.26950 -123.78308 38157 ft 387 kts 324°
2026-05-06 17:28 48.31514 -123.82590 38174 ft 386 kts 324°
2026-05-06 17:29 48.36070 -123.86901 38170 ft 386 kts 324°
2026-05-06 17:29 48.40614 -123.91218 38171 ft 387 kts 324°
2026-05-06 17:30 48.45159 -123.95548 38167 ft 386 kts 323°
2026-05-06 17:30 48.49703 -123.99886 38186 ft 387 kts 324°
2026-05-06 17:31 48.54254 -124.04240 38175 ft 388 kts 323°
2026-05-06 17:31 48.58782 -124.08583 38166 ft 388 kts 323°
2026-05-06 17:32 48.63344 -124.12967 38168 ft 389 kts 323°
2026-05-06 17:32 48.67917 -124.17370 38169 ft 390 kts 323°
2026-05-06 17:33 48.72235 -124.21531 38167 ft 386 kts 323°
2026-05-06 17:33 48.75930 -124.25102 38158 ft 383 kts 323°
2026-05-06 17:34 48.80413 -124.29444 38170 ft 381 kts 323°
2026-05-06 17:34 48.84853 -124.33754 38152 ft 382 kts 323°
2026-05-06 17:35 48.89326 -124.38109 38160 ft 382 kts 323°
2026-05-06 17:35 48.93796 -124.42462 38141 ft 382 kts 323°
2026-05-06 17:36 49.00518 -124.48902 38148 ft 378 kts 323°
2026-05-06 17:36 49.04937 -124.53262 38157 ft 379 kts 322°
2026-05-06 17:37 49.09395 -124.57604 38174 ft 378 kts 323°
2026-05-06 17:37 49.13822 -124.61991 38190 ft 382 kts 322°
2026-05-06 17:38 49.18288 -124.66480 38162 ft 386 kts 322°
2026-05-06 17:38 49.22775 -124.70948 38169 ft 389 kts 322°
2026-05-06 17:39 49.27323 -124.75460 38159 ft 390 kts 322°
2026-05-06 17:39 49.31863 -124.79965 38152 ft 385 kts 322°
2026-05-06 17:40 49.35552 -124.83621 38152 ft 376 kts 322°
2026-05-06 17:40 49.39956 -124.87990 38150 ft 379 kts 322°
2026-05-06 17:41 49.44448 -124.92345 38228 ft 381 kts 322°
2026-05-06 17:41 49.46638 -124.94647 38107 ft 380 kts 320°
2026-05-06 17:41 49.49545 -124.97679 38163 ft 384 kts 321°
2026-05-06 17:42 49.53301 -125.01461 38165 ft 387 kts 322°
2026-05-06 17:42 49.57795 -125.05948 38158 ft 387 kts 322°
2026-05-06 17:43 49.62309 -125.10476 38165 ft 386 kts 322°
2026-05-06 17:43 49.66013 -125.14210 38161 ft 385 kts 322°
2026-05-06 17:44 49.70495 -125.18744 38181 ft 385 kts 321°
2026-05-06 17:44 49.74934 -125.23244 38144 ft 376 kts 321°
2026-05-06 17:45 49.79277 -125.27659 38159 ft 376 kts 321°
2026-05-06 17:45 49.83649 -125.32119 38165 ft 377 kts 321°
2026-05-06 17:46 49.88029 -125.36603 38184 ft 378 kts 321°
2026-05-06 17:46 49.92432 -125.41108 38173 ft 378 kts 321°
2026-05-06 17:47 49.96835 -125.45622 38170 ft 379 kts 321°
2026-05-06 17:47 50.01238 -125.50147 38158 ft 379 kts 321°
2026-05-06 17:48 50.05639 -125.54681 38164 ft 379 kts 321°
2026-05-06 17:48 50.10035 -125.59220 38226 ft 379 kts 320°
2026-05-06 17:49 50.14419 -125.63761 38185 ft 381 kts 321°
2026-05-06 17:49 50.18840 -125.68343 38191 ft 381 kts 321°
2026-05-06 17:50 50.23249 -125.72926 38179 ft 381 kts 321°
2026-05-06 17:50 50.27655 -125.77506 38176 ft 379 kts 321°
2026-05-06 17:51 50.31986 -125.82031 38194 ft 376 kts 320°
2026-05-06 17:51 50.36337 -125.86614 38206 ft 377 kts 320°
2026-05-06 17:52 50.40699 -125.91188 38204 ft 377 kts 320°
2026-05-06 17:52 50.45064 -125.95768 38201 ft 378 kts 320°
2026-05-06 17:53 50.49433 -126.00369 38206 ft 378 kts 320°
2026-05-06 17:53 50.53148 -126.04292 38208 ft 379 kts 320°
2026-05-06 17:54 50.57501 -126.08888 38206 ft 379 kts 320°
2026-05-06 17:54 50.61874 -126.13527 38206 ft 378 kts 320°
2026-05-06 17:55 50.66241 -126.18177 38210 ft 379 kts 320°
2026-05-06 17:55 50.70608 -126.22826 38250 ft 378 kts 320°
2026-05-06 17:56 50.74963 -126.27480 38236 ft 378 kts 320°
2026-05-06 17:56 50.79322 -126.32153 38231 ft 380 kts 320°
2026-05-06 17:57 50.83695 -126.36843 38228 ft 380 kts 320°
2026-05-06 17:57 50.88033 -126.41508 38240 ft 379 kts 320°
2026-05-06 17:58 50.92396 -126.46204 38229 ft 378 kts 320°
2026-05-06 17:58 50.96739 -126.50896 38224 ft 378 kts 320°
2026-05-06 17:59 51.01075 -126.55593 38217 ft 377 kts 320°
2026-05-06 17:59 51.05414 -126.60312 38228 ft 378 kts 320°
2026-05-06 18:00 51.09749 -126.65037 38213 ft 375 kts 319°
2026-05-06 18:00 51.13848 -126.69465 38238 ft 374 kts 319°
2026-05-06 18:01 51.18135 -126.74155 38187 ft 374 kts 318°
2026-05-06 18:01 51.22429 -126.78871 38187 ft 375 kts 319°
2026-05-06 18:02 51.26741 -126.83517 38171 ft 376 kts 319°
2026-05-06 18:02 51.31014 -126.88268 38181 ft 375 kts 319°
2026-05-06 18:03 51.35315 -126.93042 38217 ft 377 kts 319°
2026-05-06 18:03 51.38592 -126.96675 38205 ft 380 kts 319°
2026-05-06 18:04 51.42942 -127.01490 38204 ft 381 kts 319°
2026-05-06 18:04 51.47257 -127.06433 38185 ft 383 kts 319°
2026-05-06 18:05 51.51633 -127.11229 38240 ft 378 kts 319°
2026-05-06 18:05 51.56002 -127.16063 38171 ft 382 kts 318°
2026-05-06 18:06 51.60332 -127.20916 38211 ft 380 kts 319°
2026-05-06 18:06 51.64699 -127.25789 38197 ft 384 kts 319°
2026-05-06 18:07 51.69099 -127.30717 38203 ft 385 kts 319°
2026-05-06 18:07 51.73511 -127.35673 38203 ft 388 kts 319°
2026-05-06 18:08 51.77956 -127.40698 38216 ft 391 kts 319°
2026-05-06 18:08 51.82412 -127.45734 38182 ft 389 kts 319°
2026-05-06 18:09 51.86761 -127.50540 38273 ft 379 kts 319°
2026-05-06 18:09 51.91120 -127.55554 38224 ft 386 kts 318°
2026-05-06 18:10 51.95497 -127.60590 38247 ft 386 kts 318°
2026-05-06 18:10 51.99882 -127.65610 38228 ft 386 kts 318°
2026-05-06 18:11 52.04268 -127.70638 38234 ft 386 kts 318°
2026-05-06 18:11 52.08666 -127.75700 38199 ft 387 kts 318°
2026-05-06 18:12 52.13056 -127.80737 38226 ft 386 kts 318°
2026-05-06 18:12 52.17442 -127.85802 38229 ft 388 kts 318°
2026-05-06 18:13 52.21842 -127.90891 38222 ft 387 kts 318°
2026-05-06 18:13 52.25527 -127.95153 38244 ft 385 kts 318°
2026-05-06 18:14 52.29866 -128.00203 38219 ft 386 kts 318°
2026-05-06 18:14 52.34237 -128.05297 38228 ft 386 kts 318°
2026-05-06 18:15 52.38604 -128.10400 38222 ft 385 kts 318°
2026-05-06 18:15 52.42954 -128.15492 38213 ft 385 kts 318°
2026-05-06 18:16 52.47304 -128.20590 38232 ft 384 kts 318°
2026-05-06 18:16 52.51655 -128.25713 38222 ft 385 kts 318°
2026-05-06 18:17 52.56005 -128.30845 38227 ft 385 kts 317°
2026-05-06 18:17 52.60353 -128.35986 38209 ft 386 kts 317°
2026-05-06 18:18 52.64741 -128.41157 38229 ft 388 kts 317°
2026-05-06 18:18 52.69114 -128.46361 38215 ft 388 kts 317°
2026-05-06 18:19 52.73451 -128.51550 38221 ft 388 kts 317°
2026-05-06 18:19 52.77866 -128.56809 38209 ft 389 kts 317°
2026-05-06 18:20 52.82213 -128.62022 38228 ft 389 kts 317°
2026-05-06 18:20 52.86658 -128.67168 38253 ft 389 kts 318°
2026-05-06 18:21 52.91019 -128.72485 38221 ft 390 kts 317°
2026-05-06 18:21 52.95393 -128.77851 38216 ft 392 kts 317°
2026-05-06 18:22 52.99793 -128.83183 38231 ft 388 kts 318°
2026-05-06 18:22 53.04168 -128.88490 38224 ft 390 kts 317°
2026-05-06 18:23 53.08519 -128.93801 38220 ft 391 kts 317°
2026-05-06 18:23 53.11997 -128.98040 38213 ft 392 kts 317°
2026-05-06 18:24 53.16394 -129.03396 38228 ft 392 kts 317°
2026-05-06 18:24 53.20800 -129.08800 38212 ft 394 kts 317°
2026-05-06 18:25 53.25200 -129.14210 38225 ft 395 kts 317°
2026-05-06 18:25 53.29628 -129.19666 38212 ft 396 kts 317°
2026-05-06 18:26 53.34060 -129.25136 38212 ft 396 kts 317°
2026-05-06 18:26 53.38498 -129.30639 38227 ft 397 kts 317°
2026-05-06 18:27 53.42933 -129.36151 38216 ft 396 kts 317°
2026-05-06 18:27 53.47334 -129.41626 38239 ft 396 kts 317°
2026-05-06 18:28 53.51777 -129.47164 38202 ft 398 kts 317°
2026-05-06 18:28 53.56203 -129.52671 38214 ft 396 kts 317°
2026-05-06 18:29 53.60624 -129.58225 38222 ft 397 kts 317°
2026-05-06 18:29 53.65061 -129.63812 38225 ft 398 kts 317°
2026-05-06 18:30 53.69510 -129.69423 38215 ft 400 kts 317°
2026-05-06 18:30 53.73246 -129.74145 38193 ft 401 kts 317°
2026-05-06 18:31 53.77660 -129.79729 38209 ft 399 kts 317°
2026-05-06 18:31 53.82100 -129.85378 38225 ft 401 kts 317°
2026-05-06 18:32 53.86555 -129.91066 38235 ft 401 kts 317°
2026-05-06 18:32 53.91024 -129.96773 38251 ft 403 kts 317°
2026-05-06 18:33 53.95514 -130.02519 37948 ft 408 kts 317°
2026-05-06 18:33 53.96986 -130.04410 37651 ft 407 kts 317°
2026-05-06 18:33 53.99242 -130.07307 37079 ft 403 kts 317°
2026-05-06 18:34 54.01468 -130.10168 36508 ft 400 kts 316°
2026-05-06 18:34 54.03679 -130.13014 35895 ft 397 kts 316°
2026-05-06 18:34 54.05873 -130.15844 35244 ft 395 kts 316°
2026-05-06 18:34 54.08030 -130.18626 34598 ft 393 kts 316°
2026-05-06 18:35 54.10199 -130.21433 33910 ft 391 kts 316°
2026-05-06 18:35 54.12367 -130.24246 33148 ft 390 kts 316°
2026-05-06 18:35 54.14522 -130.27045 32447 ft 389 kts 316°
2026-05-06 18:35 54.16633 -130.29782 32468 ft 373 kts 316°
2026-05-06 18:36 54.20857 -130.35297 32463 ft 393 kts 316°
2026-05-06 18:36 54.25295 -130.41094 32463 ft 406 kts 316°
2026-05-06 18:37 54.29679 -130.47010 32493 ft 400 kts 315°
2026-05-06 18:37 54.31800 -130.50018 31944 ft 395 kts 314°
2026-05-06 18:37 54.33917 -130.53057 30944 ft 400 kts 314°
2026-05-06 18:38 54.36077 -130.56167 29697 ft 409 kts 315°
2026-05-06 18:38 54.38272 -130.59318 28624 ft 412 kts 315°
2026-05-06 18:38 54.40462 -130.62448 27757 ft 406 kts 315°
2026-05-06 18:38 54.42619 -130.65521 26825 ft 399 kts 315°
2026-05-06 18:39 54.44748 -130.68555 25770 ft 397 kts 316°
2026-05-06 18:39 54.46833 -130.71533 24783 ft 396 kts 316°
2026-05-06 18:39 54.48902 -130.74490 24213 ft 390 kts 316°
2026-05-06 18:40 54.52635 -130.79841 23020 ft 382 kts 316°
2026-05-06 18:40 54.54663 -130.82750 22422 ft 376 kts 316°
2026-05-06 18:40 54.56653 -130.85608 21844 ft 370 kts 316°
2026-05-06 18:40 54.58623 -130.88442 21271 ft 366 kts 316°
2026-05-06 18:41 54.60531 -130.91191 20713 ft 361 kts 316°
2026-05-06 18:41 54.62372 -130.93849 20186 ft 357 kts 317°
2026-05-06 18:41 54.64256 -130.96571 19640 ft 355 kts 317°
2026-05-06 18:41 54.66146 -130.99308 19118 ft 351 kts 317°
2026-05-06 18:42 54.67929 -131.01887 18634 ft 340 kts 317°
2026-05-06 18:42 54.69739 -131.04511 17830 ft 337 kts 317°
2026-05-06 18:42 54.71509 -131.07082 17040 ft 335 kts 317°
2026-05-06 18:42 54.73267 -131.09638 16298 ft 331 kts 317°
2026-05-06 18:43 54.75019 -131.12188 15580 ft 327 kts 317°
2026-05-06 18:43 54.76745 -131.14703 14886 ft 323 kts 317°
2026-05-06 18:43 54.77737 -131.16150 14485 ft 320 kts 317°
2026-05-06 18:43 54.79439 -131.18635 13770 ft 317 kts 317°
2026-05-06 18:44 54.81113 -131.21081 13044 ft 313 kts 317°
2026-05-06 18:44 54.82764 -131.23495 12341 ft 309 kts 317°
2026-05-06 18:44 54.84393 -131.25881 11667 ft 304 kts 317°
2026-05-06 18:44 54.85942 -131.28150 11501 ft 285 kts 317°
2026-05-06 18:45 54.87430 -131.30331 11078 ft 276 kts 317°
2026-05-06 18:45 54.88894 -131.32482 10495 ft 275 kts 317°
2026-05-06 18:45 54.90350 -131.34626 9921 ft 273 kts 318°
2026-05-06 18:45 54.91791 -131.36748 9336 ft 270 kts 318°
2026-05-06 18:46 54.93219 -131.38853 8765 ft 267 kts 318°
2026-05-06 18:46 54.94633 -131.40939 8189 ft 265 kts 318°
2026-05-06 18:46 54.96036 -131.43010 7624 ft 263 kts 318°
2026-05-06 18:46 54.97424 -131.45062 7076 ft 261 kts 318°
2026-05-06 18:47 54.98805 -131.47105 6530 ft 259 kts 318°
2026-05-06 18:47 55.00174 -131.49131 5934 ft 257 kts 319°
2026-05-06 18:47 55.01538 -131.51152 5348 ft 256 kts 319°
2026-05-06 18:47 55.02892 -131.53160 5039 ft 253 kts 320°
2026-05-06 18:48 55.04174 -131.55064 4872 ft 238 kts 320°
2026-05-06 18:48 55.05387 -131.56867 4789 ft 220 kts 320°
2026-05-06 18:48 55.06533 -131.58432 4788 ft 200 kts 328°
2026-05-06 18:48 55.07677 -131.59610 4776 ft 185 kts 330°
2026-05-06 18:49 55.08780 -131.60714 4793 ft 181 kts 330°
2026-05-06 18:49 55.09861 -131.61805 4801 ft 179 kts 330°
2026-05-06 18:49 55.10946 -131.62902 4800 ft 181 kts 332°
2026-05-06 18:49 55.12155 -131.63355 4788 ft 182 kts
2026-05-06 18:50 55.13270 -131.62333 4752 ft 186 kts 41°
2026-05-06 18:50 55.14193 -131.60723 4731 ft 189 kts 42°
2026-05-06 18:50 55.15115 -131.59079 4675 ft 189 kts 44°
2026-05-06 18:50 55.16028 -131.57439 4621 ft 187 kts 43°
2026-05-06 18:51 55.16928 -131.55824 4573 ft 184 kts 42°
2026-05-06 18:51 55.17804 -131.54251 4531 ft 181 kts 43°
2026-05-06 18:51 55.18672 -131.52691 4504 ft 172 kts 44°
2026-05-06 18:51 55.19498 -131.51209 4445 ft 169 kts 43°
2026-05-06 18:52 55.20294 -131.49778 4428 ft 164 kts 41°
2026-05-06 18:52 55.21183 -131.48617 4342 ft 156 kts 11°
2026-05-06 18:52 55.22220 -131.48805 4363 ft 158 kts 332°
2026-05-06 18:52 55.23080 -131.50073 4295 ft 161 kts 317°
2026-05-06 18:53 55.23854 -131.51364 4151 ft 146 kts 317°
2026-05-06 18:53 55.24544 -131.52536 4116 ft 134 kts 317°
2026-05-06 18:53 55.25212 -131.53672 4008 ft 133 kts 316°
2026-05-06 18:53 55.25862 -131.54776 3925 ft 129 kts 317°
2026-05-06 18:54 55.26498 -131.55859 3871 ft 126 kts 316°
2026-05-06 18:54 55.27135 -131.56946 3791 ft 129 kts 316°
2026-05-06 18:54 55.27800 -131.58083 3510 ft 137 kts 316°
2026-05-06 18:54 55.28473 -131.59240 3193 ft 135 kts 315°
2026-05-06 18:55 55.29131 -131.60372 2826 ft 130 kts 315°
2026-05-06 18:55 55.29763 -131.61477 2418 ft 128 kts 314°
2026-05-06 18:55 55.30411 -131.62603 2059 ft 132 kts 316°
2026-05-06 18:55 55.31069 -131.63726 1655 ft 131 kts 316°
2026-05-06 18:56 55.31716 -131.64825 1291 ft 126 kts 315°
2026-05-06 18:56 55.32351 -131.65902 979 ft 127 kts 316°
2026-05-06 18:56 55.32974 -131.66967 690 ft 126 kts 317°
2026-05-06 18:56 55.33612 -131.68047 456 ft 129 kts 317°
2026-05-06 18:57 55.34262 -131.69156 266 ft 132 kts 319°
2026-05-06 18:57 55.34906 -131.70258 114 ft 123 kts 318°
2026-05-06 18:57 55.35435 -131.71166 100 ft 80 kts 316°
2026-05-06 18:57 55.35748 -131.71705 99 ft 56 kts 315°
2026-05-06 18:58 55.36002 -131.72142 100 ft 47 kts 315°
2026-05-06 18:58 55.36146 -131.72329 99 ft 12 kts 13°
2026-05-06 18:58 55.36183 -131.72205 100 ft 12 kts 103°
2026-05-06 18:58 55.36121 -131.72073 92 ft 16 kts 133°
2026-05-06 18:59 55.36033 -131.71908 85 ft 21 kts 134°
2026-05-06 18:59 55.35923 -131.71704 67 ft 25 kts 133°
2026-05-06 18:59 55.35839 -131.71547 54 ft 18 kts 135°
2026-05-06 18:59 55.35737 -131.71373 47 ft 23 kts 135°
2026-05-06 19:00 55.35641 -131.71207 39 ft 9 kts 135°
2026-05-06 19:00 55.35611 -131.71142 40 ft 5 kts 99°
2026-05-06 19:00 55.35630 -131.71087 41 ft 6 kts 49°
2026-05-06 19:00 55.35652 -131.71048 39 ft 6 kts 46°
2026-05-06 19:01 55.35662 -131.71030 41 ft 0 kts 45°